When you browse on this site, cookies collect data to enhance your experience and personalize the content and advertising you see.
Visit our Privacy Policy to learn more. By continuing to use the site, you agree to this use of cookies and data.
  • Em Portugal
  • Lista de países
  • Para 7 dias
  • Temperatura da água
  • Mapas de satélite
  • Mapa do tempo
  • Widgets de tempo
  • user-avatar
    Iniciar Sessão

    Previsão horária em Biatris

    Hoje, 27 Maio, Segunda-feira

    Tempo Temperatura Precipitação Vento Pressão Humidade
    00:00 +11°C° 0 mm 3 m/s 655 mmHg 80%
    01:00 +11°C° 0 mm 3 m/s 654 mmHg 83%
    02:00 +10°C° 0 mm 2 m/s 654 mmHg 85%
    03:00 +10°C° 0 mm 2 m/s 654 mmHg 87%
    04:00 +9°C° 0 mm 2 m/s 654 mmHg 89%
    05:00 +9°C° 0 mm 2 m/s 654 mmHg 90%
    06:00 +10°C° 0 mm 2 m/s 654 mmHg 82%
    07:00 +13°C° 0 mm 2 m/s 655 mmHg 74%
    08:00 +14°C° 0 mm 2 m/s 655 mmHg 67%
    09:00 +18°C° 0 mm 2 m/s 656 mmHg 56%
    10:00 +22°C° 0 mm 1 m/s 657 mmHg 45%
    11:00 +25°C° 0 mm 1 m/s 658 mmHg 34%
    12:00 +25°C° 0 mm 1 m/s 657 mmHg 30%
    13:00 +26°C° 0 mm 1 m/s 657 mmHg 27%
    14:00 +27°C° 0 mm 1 m/s 656 mmHg 24%
    15:00 +25°C° 0 mm 1 m/s 656 mmHg 26%
    16:00 +24°C° 0 mm 2 m/s 655 mmHg 28%
    17:00 +23°C° 0 mm 2 m/s 655 mmHg 30%
    18:00 +20°C° 0 mm 2 m/s 655 mmHg 35%
    19:00 +18°C° 0 mm 3 m/s 654 mmHg 41%
    20:00 +16°C° 0 mm 3 m/s 654 mmHg 47%
    21:00 +14°C° 0 mm 3 m/s 654 mmHg 50%
    22:00 +14°C° 0 mm 3 m/s 654 mmHg 54%
    23:00 +13°C° 0 mm 3 m/s 655 mmHg 57%

    Amanhã, 28 Maio, Terça-feira

    Tempo Temperatura Precipitação Vento Pressão Humidade
    00:00 +12°C° 0 mm 3 m/s 654 mmHg 62%
    01:00 +12°C° 0 mm 2 m/s 654 mmHg 68%
    02:00 +12°C° 0 mm 2 m/s 654 mmHg 73%
    03:00 +10°C° 0 mm 2 m/s 654 mmHg 76%
    04:00 +10°C° 0 mm 2 m/s 654 mmHg 78%
    05:00 +10°C° 0 mm 2 m/s 653 mmHg 81%
    06:00 +12°C° 0 mm 2 m/s 654 mmHg 73%
    07:00 +14°C° 0 mm 2 m/s 655 mmHg 66%
    08:00 +15°C° 0 mm 2 m/s 656 mmHg 59%
    09:00 +20°C° 0 mm 1 m/s 657 mmHg 50%
    10:00 +23°C° 0 mm 1 m/s 657 mmHg 40%
    11:00 +25°C° 0 mm 0 m/s 658 mmHg 30%
    12:00 +27°C° 0 mm 1 m/s 657 mmHg 28%
    13:00 +27°C° 0 mm 1 m/s 656 mmHg 25%
    14:00 +28°C° 0 mm 1 m/s 656 mmHg 23%
    15:00 +26°C° 0 mm 1 m/s 655 mmHg 25%
    16:00 +25°C° 0 mm 1 m/s 655 mmHg 27%
    17:00 +23°C° 0 mm 1 m/s 654 mmHg 30%
    18:00 +21°C° 0 mm 1 m/s 654 mmHg 35%
    19:00 +18°C° 0 mm 2 m/s 654 mmHg 40%
    20:00 +16°C° 0 mm 2 m/s 654 mmHg 45%
    21:00 +16°C° 0 mm 2 m/s 654 mmHg 49%
    22:00 +15°C° 0 mm 2 m/s 654 mmHg 52%
    23:00 +14°C° 0 mm 2 m/s 654 mmHg 56%

    Depois de amanhã, 29 Maio, Quarta-feira

    Tempo Temperatura Precipitação Vento Pressão Humidade
    00:00 +13°C° 0 mm 2 m/s 654 mmHg 60%
    01:00 +13°C° 0 mm 2 m/s 654 mmHg 64%
    02:00 +12°C° 0 mm 2 m/s 653 mmHg 68%
    03:00 +12°C° 0 mm 1 m/s 653 mmHg 70%
    04:00 +12°C° 0 mm 1 m/s 653 mmHg 72%
    05:00 +12°C° 0 mm 1 m/s 653 mmHg 74%
    06:00 +13°C° 0 mm 1 m/s 654 mmHg 69%
    07:00 +15°C° 0 mm 1 m/s 655 mmHg 63%
    08:00 +18°C° 0 mm 1 m/s 656 mmHg 58%
    09:00 +21°C° 0 mm 1 m/s 657 mmHg 49%
    10:00 +24°C° 0 mm 1 m/s 657 mmHg 40%
    11:00 +27°C° 0 mm 1 m/s 658 mmHg 31%
    12:00 +27°C° 0 mm 1 m/s 657 mmHg 29%
    13:00 +27°C° 0 mm 1 m/s 657 mmHg 28%
    14:00 +27°C° 0 mm 1 m/s 656 mmHg 26%
    15:00 +26°C° 0 mm 1 m/s 655 mmHg 29%
    16:00 +24°C° 0 mm 2 m/s 655 mmHg 32%
    17:00 +23°C° 0 mm 2 m/s 655 mmHg 35%
    18:00 +20°C° 0 mm 2 m/s 655 mmHg 40%
    19:00 +19°C° 0 mm 3 m/s 655 mmHg 45%
    20:00 +18°C° 0 mm 3 m/s 655 mmHg 50%
    21:00 +17°C° 0 mm 3 m/s 655 mmHg 54%
    22:00 +16°C° 0 mm 3 m/s 655 mmHg 57%
    23:00 +14°C° 0 mm 3 m/s 655 mmHg 61%

    30 Maio, Quinta-feira

    Tempo Temperatura Precipitação Vento Pressão Humidade
    00:00 +13°C° 0 mm 3 m/s 655 mmHg 63%
    01:00 +13°C° 0 mm 3 m/s 654 mmHg 66%
    02:00 +13°C° 0 mm 2 m/s 654 mmHg 69%
    03:00 +12°C° 0 mm 2 m/s 654 mmHg 71%
    04:00 +12°C° 0 mm 2 m/s 654 mmHg 74%
    05:00 +10°C° 0 mm 2 m/s 654 mmHg 76%
    06:00 +13°C° 0 mm 2 m/s 655 mmHg 72%
    07:00 +13°C° 0 mm 3 m/s 655 mmHg 67%
    08:00 +14°C° 0 mm 3 m/s 656 mmHg 62%
    09:00 +18°C° 0 mm 3 m/s 657 mmHg 52%
    10:00 +21°C° 0 mm 2 m/s 657 mmHg 42%
    11:00 +24°C° 0 mm 2 m/s 658 mmHg 33%
    12:00 +25°C° 0 mm 2 m/s 657 mmHg 29%
    13:00 +26°C° 0 mm 2 m/s 656 mmHg 25%
    14:00 +26°C° 0 mm 2 m/s 655 mmHg 22%
    15:00 +25°C° 0 mm 2 m/s 655 mmHg 23%
    16:00 +24°C° 0 mm 3 m/s 655 mmHg 24%
    17:00 +22°C° 0 mm 3 m/s 655 mmHg 25%
    18:00 +20°C° 0 mm 3 m/s 654 mmHg 32%
    19:00 +18°C° 0 mm 3 m/s 654 mmHg 39%
    20:00 +16°C° 0 mm 3 m/s 654 mmHg 45%
    21:00 +14°C° 0 mm 3 m/s 654 mmHg 51%
    22:00 +13°C° 0 mm 3 m/s 654 mmHg 57%
    23:00 +13°C° 0 mm 2 m/s 654 mmHg 62%

    31 Maio, Sexta-feira

    Tempo Temperatura Precipitação Vento Pressão Humidade
    00:00 +12°C° 0 mm 2 m/s 654 mmHg 68%
    01:00 +12°C° 0 mm 2 m/s 653 mmHg 74%
    02:00 +10°C° 0 mm 2 m/s 653 mmHg 79%
    03:00 +10°C° 0 mm 2 m/s 653 mmHg 80%
    04:00 +10°C° 0 mm 2 m/s 653 mmHg 81%
    05:00 +11°C° 0 mm 1 m/s 653 mmHg 82%
    06:00 +13°C° 0 mm 1 m/s 654 mmHg 74%
    07:00 +14°C° 0 mm 1 m/s 655 mmHg 66%
    08:00 +16°C° 0 mm 1 m/s 655 mmHg 59%
    09:00 +20°C° 0 mm 1 m/s 656 mmHg 49%
    10:00 +23°C° 0 mm 1 m/s 656 mmHg 39%
    11:00 +26°C° 0 mm 1 m/s 657 mmHg 30%
    12:00 +26°C° 0 mm 1 m/s 656 mmHg 27%
    13:00 +27°C° 0 mm 1 m/s 655 mmHg 25%
    14:00 +27°C° 0 mm 1 m/s 654 mmHg 22%
    15:00 +26°C° 0 mm 1 m/s 654 mmHg 24%
    16:00 +25°C° 0 mm 1 m/s 654 mmHg 26%
    17:00 +24°C° 0 mm 1 m/s 653 mmHg 28%
    18:00 +22°C° 0 mm 1 m/s 653 mmHg 30%
    19:00 +19°C° 0 mm 2 m/s 654 mmHg 32%
    20:00 +17°C° 0 mm 2 m/s 654 mmHg 34%
    21:00 +16°C° 0 mm 2 m/s 653 mmHg 36%
    22:00 +15°C° 0 mm 2 m/s 653 mmHg 38%
    23:00 +14°C° 0 mm 2 m/s 653 mmHg 40%

    1 Junho, Sábado

    Tempo Temperatura Precipitação Vento Pressão Humidade
    00:00 +14°C° 0 mm 2 m/s 653 mmHg 41%
    01:00 +13°C° 0 mm 2 m/s 653 mmHg 42%
    02:00 +13°C° 0 mm 2 m/s 653 mmHg 42%
    03:00 +13°C° 0 mm 2 m/s 653 mmHg 48%
    04:00 +12°C° 0 mm 2 m/s 653 mmHg 53%
    05:00 +12°C° 0 mm 1 m/s 653 mmHg 58%
    06:00 +13°C° 0 mm 1 m/s 654 mmHg 56%
    07:00 +15°C° 0 mm 1 m/s 655 mmHg 54%
    08:00 +16°C° 0 mm 1 m/s 656 mmHg 52%
    09:00 +20°C° 0 mm 1 m/s 656 mmHg 43%
    10:00 +23°C° 0 mm 1 m/s 656 mmHg 33%
    11:00 +25°C° 0 mm 2 m/s 657 mmHg 24%
    12:00 +26°C° 0 mm 2 m/s 656 mmHg 21%
    13:00 +27°C° 0 mm 2 m/s 656 mmHg 18%
    14:00 +27°C° 0 mm 3 m/s 655 mmHg 15%
    15:00 +26°C° 0 mm 3 m/s 655 mmHg 17%
    16:00 +25°C° 0 mm 3 m/s 655 mmHg 18%
    17:00 +22°C° 0 mm 4 m/s 654 mmHg 20%
    18:00 +20°C° 0 mm 4 m/s 655 mmHg 24%
    19:00 +18°C° 0 mm 3 m/s 655 mmHg 29%
    20:00 +16°C° 0 mm 3 m/s 655 mmHg 34%
    21:00 +15°C° 0 mm 4 m/s 655 mmHg 37%
    22:00 +14°C° 0 mm 4 m/s 655 mmHg 40%
    23:00 +14°C° 0 mm 4 m/s 655 mmHg 43%
    Mostrar mais